Temperature
5 5 5 5 5 5 5 5 5 5 5 5 5 5 5 5 5 5 5 5 5 5 5 5 5 5 4 4 4 4 4 4 4 3 4 4 4 4 4 4 4 4 4
4 4 5 5 5 5 5 5 5 5 5 5 5 5 5 5 5 5 4 4 4 4 4 4 4 4 4 4 4 4 4 4 3 3 3 3 3 3 3 3 3 3 3
4 4 4 4 4 4 4 4 4 4 4 4 4 4 4 4 4 4 4 4 4 4 4 4 4 4 4 4 3 3 3 3 3 3 3 2 2 3 3 3 3 3 3
3 3 3 4 4 4 4 4 4 4 4 4 4 4 4 4 4 4 4 4 4 3 3 3 3 3 3 3 3 3 3 3 2 2 2 2 2 2 2 2 2 2 2
3 3 3 3 3 3 3 3 3 3 3 3 3 3 3 3 3 4 3 3 3 3 3 3 3 3 3 3 3 3 3 2 2 2 2 2 2 1 1 2 1 1 1
2 2 2 2 2 2 3 3 3 3 3 3 3 3 3 3 3 3 3 3 3 3 3 3 3 3 2 2 2 2 2 2 2 2 2 1 1 1 1 1 1 1 0
1 1 2 2 2 2 2 2 2 2 3 3 3 3 3 3 3 3 2 2 2 2 2 2 2 2 2 2 2 2 2 1 1 1 1 1 1 1 1 1 0 0 -0
1 1 1 1 1 1 1 1 2 2 2 2 2 2 2 2 2 2 2 2 2 2 2 2 2 2 2 2 1 1 1 1 1 1 1 1 1 0 0 -0 -0 -0 -1
-0 -0 0 0 0 0 1 1 1 1 1 1 1 1 2 2 2 2 1 1 1 1 1 1 1 1 1 1 1 1 1 1 0 0 0 0 0 -0 -0 -1 -1 -1 -1
-1 -1 -1 -0 -0 -0 0 0 0 0 1 1 1 1 1 1 1 1 1 1 1 1 1 1 1 1 1 1 0 0 0 0 0 -0 -0 -0 -0 -1 -1 -1 -1 -2 -2
-1 -1 -1 -1 -1 -1 -1 -0 -0 -0 -0 0 0 0 0 1 1 1 0 0 0 0 0 0 0 0 0 0 -0 -0 -0 -0 -0 -1 -1 -1 -1 -1 -1 -2 -2 -2 -2
-2 -2 -1 -1 -1 -1 -1 -1 -1 -1 -1 -1 -1 -0 -0 -0 -0 0 0 0 0 0 0 -0 -0 -0 -0 -0 -1 -1 -1 -1 -1 -1 -1 -2 -2 -2 -2 -2 -2 -2 -3
-2 -2 -2 -2 -2 -1 -1 -1 -1 -1 -1 -1 -1 -1 -1 -1 -1 -1 -1 -0 -0 -0 -0 -0 -1 -1 -1 -1 -1 -1 -1 -2 -2 -2 -2 -2 -2 -2 -2 -3 -3 -3 -3
-3 -3 -2 -2 -2 -2 -2 -2 -2 -2 -2 -2 -2 -2 -1 -1 -1 -1 -1 -1 -1 -1 -1 -1 -1 -2 -2 -2 -2 -2 -2 -2 -3 -3 -3 -3 -3 -3 -3 -3 -3 -3 -3
-3 -3 -3 -3 -3 -3 -3 -2 -2 -2 -2 -2 -2 -2 -2 -1 -1 -1 -1 -1 -1 -1 -2 -2 -2 -2 -2 -3 -3 -3 -3 -3 -3 -3 -3 -3 -3 -3 -3 -4 -4 -4 -4
-4 -4 -4 -4 -3 -3 -3 -3 -3 -3 -2 -2 -2 -2 -2 -2 -2 -2 -2 -2 -2 -2 -2 -2 -3 -3 -3 -3 -3 -3 -3 -3 -4 -4 -4 -4 -4 -4 -4 -4 -4 -4 -4
-5 -5 -5 -4 -4 -4 -4 -4 -3 -3 -3 -3 -3 -3 -3 -3 -3 -3 -3 -3 -3 -3 -3 -3 -3 -3 -3 -4 -4 -4 -4 -4 -4 -4 -4 -4 -4 -5 -5 -5 -5 -5 -5
-5 -5 -5 -5 -5 -5 -5 -4 -4 -4 -4 -4 -3 -3 -3 -3 -3 -3 -3 -4 -4 -4 -4 -4 -4 -4 -4 -4 -4 -4 -4 -4 -4 -4 -5 -5 -5 -5 -5 -5 -5 -5 -5
-6 -6 -6 -6 -5 -5 -5 -5 -5 -4 -4 -4 -4 -4 -4 -4 -4 -4 -4 -4 -4 -4 -4 -4 -4 -4 -4 -4 -4 -4 -4 -5 -5 -5 -5 -5 -5 -6 -6 -6 -6 -6 -6
-6 -6 -6 -6 -6 -6 -6 -5 -5 -5 -5 -5 -4 -4 -4 -4 -5 -5 -5 -5 -5 -5 -4 -4 -5 -5 -5 -5 -5 -5 -5 -5 -5 -5 -5 -6 -6 -6 -6 -6 -6 -6 -6
-7 -7 -6 -6 -6 -6 -6 -6 -6 -5 -5 -5 -5 -5 -5 -5 -5 -5 -5 -5 -5 -5 -5 -5 -5 -5 -5 -5 -5 -5 -5 -5 -5 -6 -6 -6 -6 -6 -6 -6 -6 -6 -7
-7 -7 -7 -7 -6 -6 -6 -6 -6 -6 -6 -6 -5 -5 -5 -5 -5 -5 -5 -5 -5 -5 -5 -5 -5 -5 -5 -5 -5 -5 -5 -6 -6 -6 -6 -6 -6 -6 -6 -6 -7 -7 -7
-7 -7 -7 -7 -7 -7 -7 -6 -6 -6 -6 -6 -6 -6 -6 -6 -6 -6 -5 -5 -6 -5 -5 -5 -6 -6 -6 -6 -6 -6 -6 -6 -6 -6 -6 -6 -7 -7 -7 -7 -7 -7 -7
-8 -8 -7 -7 -7 -7 -7 -7 -7 -7 -7 -7 -6 -6 -6 -6 -6 -6 -6 -6 -6 -6 -6 -6 -6 -6 -6 -6 -6 -6 -6 -6 -6 -6 -6 -7 -7 -7 -7 -7 -7 -7 -7
-8 -8 -8 -8 -8 -7 -7 -7 -7 -7 -7 -7 -7 -7 -7 -7 -6 -6 -6 -7 -7 -6 -6 -6 -6 -6 -6 -6 -6 -6 -6 -6 -6 -7 -7 -7 -7 -7 -7 -7 -8 -8 -8
-9 -8 -8 -8 -8 -8 -8 -8 -8 -7 -7 -7 -7 -7 -7 -7 -7 -7 -7 -7 -7 -7 -7 -7 -7 -7 -7 -7 -7 -7 -7 -7 -7 -7 -7 -7 -7 -7 -8 -8 -8 -8 -8
Wind_Speed
3 3 4 3 3 4 4 4 4 4 4 5 5 5 5 5 5 5 5 5 6 5 4 5 5 5 4 4 4 4 4 4 4 4 3 3 3 3 3 3 4 4 5
3 3 3 3 3 4 4 4 4 4 4 4 4 5 6 5 5 6 6 6 6 6 6 6 6 4 5 4 4 4 4 4 4 5 3 3 4 3 3 3 3 4 4
3 3 3 3 3 4 4 4 4 4 4 4 5 5 6 6 6 6 6 6 6 6 6 6 6 6 6 5 5 5 4 4 4 4 4 3 3 3 3 3 3 4 4
3 3 3 3 4 4 3 3 3 4 4 5 5 5 5 6 6 6 6 6 5 5 5 5 5 6 6 6 5 6 5 5 4 4 4 3 4 4 4 3 3 3 4
3 3 4 3 3 3 3 3 3 4 4 4 4 5 5 5 5 6 6 6 5 5 5 5 5 5 5 5 5 6 6 5 5 5 5 4 4 4 4 3 4 3 4
3 4 3 3 3 3 3 3 3 3 4 4 4 5 5 5 5 7 6 6 5 5 5 5 4 4 5 5 6 6 7 7 7 6 5 6 6 5 4 3 3 3 4
3 3 3 3 3 3 3 3 4 4 4 4 4 5 6 6 6 7 7 6 5 5 5 5 4 4 5 4 4 5 5 6 7 7 7 7 6 5 4 4 4 4 5
4 3 3 3 4 3 4 4 4 4 4 4 4 5 5 5 6 7 7 6 5 5 5 6 5 5 5 5 4 4 4 4 5 5 5 5 5 4 4 4 4 4 4
4 4 4 4 4 4 5 5 4 4 4 4 5 5 5 5 6 7 6 5 5 5 5 5 6 6 6 6 5 5 4 4 3 4 4 4 4 4 4 3 3 3 4
5 5 5 4 5 5 5 5 4 4 5 4 5 5 5 6 6 7 7 5 5 5 4 5 6 6 6 7 6 6 5 5 4 3 3 3 3 3 4 5 4 4 4
6 5 5 5 5 5 5 4 4 4 4 4 4 4 5 5 6 7 8 5 6 5 5 4 5 7 7 7 6 5 5 4 4 3 3 3 2 2 3 3 3 4 4
6 5 5 5 4 4 4 4 4 4 5 4 4 4 4 4 5 6 8 7 6 5 5 4 4 7 6 6 5 5 5 4 3 3 3 3 3 3 2 2 3 3 4
6 5 5 4 4 4 4 4 4 4 4 4 4 4 3 3 4 6 7 7 7 5 4 5 5 6 5 5 5 5 4 3 3 4 4 4 3 3 2 2 2 2 3
6 5 5 4 4 4 4 4 4 4 4 4 4 4 4 4 4 4 4 4 5 4 3 4 5 5 4 4 3 3 3 3 3 4 3 3 2 2 2 2 2 2 3
5 5 4 4 3 3 3 4 5 5 6 5 5 5 5 5 5 5 4 4 4 4 4 3 3 4 3 3 3 3 3 3 3 3 3 3 3 2 2 2 2 2 3
4 4 4 3 3 3 3 3 3 4 5 6 6 6 5 5 5 6 6 6 5 6 4 4 5 5 5 4 4 3 3 3 3 3 3 3 3 3 2 2 2 2 3
5 5 4 3 3 3 3 3 3 2 3 4 5 5 5 5 5 5 6 6 7 7 4 4 5 5 4 4 4 4 3 3 2 3 3 3 3 3 2 3 3 3 3
5 5 4 4 3 3 3 3 3 3 3 2 3 5 5 5 4 5 5 5 5 5 4 4 4 4 4 4 4 3 3 3 2 2 2 2 3 3 3 3 3 3 3
4 3 3 3 3 3 3 3 3 3 3 2 2 2 4 4 4 4 5 4 4 4 3 3 3 3 3 3 3 3 3 3 2 2 2 2 2 3 3 3 3 3 3
3 4 4 3 3 3 2 2 2 2 2 2 2 2 2 2 2 2 2 2 2 3 3 3 3 3 3 3 3 3 3 3 3 2 2 2 3 3 3 4 3 3 3
3 3 4 3 2 2 2 2 2 2 1 1 1 1 2 2 2 2 2 1 2 2 2 3 3 3 3 3 3 3 3 3 3 3 3 3 3 3 3 3 3 3 3
2 2 2 2 2 1 1 1 1 1 1 1 0 0 1 1 1 2 1 1 1 1 1 2 2 2 3 3 3 3 3 3 3 3 3 3 3 3 3 3 3 3 3
2 2 2 2 1 1 1 1 0 0 0 0 0 0 0 1 1 1 1 1 1 1 1 1 1 1 2 2 3 4 4 4 3 4 3 3 3 3 3 3 4 4 4
1 1 1 1 1 1 1 1 0 0 0 0 0 0 0 1 1 1 1 1 1 1 1 1 1 2 2 2 3 3 4 4 4 4 5 4 4 3 3 3 3 4 4
1 1 1 1 1 1 1 1 1 1 0 0 0 0 0 0 1 1 1 1 1 1 1 0 1 2 3 3 3 3 4 5 4 4 5 4 4 4 3 3 3 3 3
1 1 1 1 1 1 1 1 1 1 1 1 1 0 0 0 0 0 0 0 0 0 0 0 1 2 2 2 3 4 4 5 5 5 4 4 4 3 3 3 3 3 3
Wind_Direction
228 224 220 221 219 217 219 220 217 216 213 216 216 211 212 212 208 208 213 211 216 218 216 216 220 218 213 216 215 217 224 227 240 256 260 259 264 258 249 246 250 255 254
240 231 225 220 216 216 220 223 220 220 220 218 218 214 212 213 211 210 214 215 216 217 217 216 218 215 215 212 210 215 221 224 228 241 250 253 260 266 265 260 264 263 264
247 237 231 226 220 220 225 228 222 222 223 220 218 219 217 214 212 213 213 216 218 219 219 217 217 216 217 215 212 213 217 216 221 227 240 248 257 256 263 264 265 266 265
248 238 236 235 231 228 228 229 227 225 225 224 224 226 227 220 215 214 213 214 218 222 223 222 222 220 220 218 216 214 210 209 210 215 224 236 241 243 246 251 259 260 259
258 246 246 245 238 231 228 229 230 230 231 227 228 230 231 227 220 212 209 212 215 220 226 227 226 224 229 226 220 213 210 211 212 212 218 227 230 230 235 241 254 264 266
268 255 252 248 241 237 235 234 233 234 235 230 229 229 231 228 214 210 211 211 213 216 221 225 222 219 220 217 222 226 226 222 216 218 222 225 235 239 239 237 249 267 269
279 267 254 247 245 246 246 242 238 236 236 237 236 234 234 228 213 209 210 214 216 220 221 221 221 217 214 215 215 216 231 238 236 230 227 234 241 240 240 245 246 254 266
291 285 274 254 249 248 244 245 245 241 238 240 241 241 240 230 214 209 208 216 219 223 223 220 217 216 211 207 210 220 232 239 237 235 237 244 247 241 238 250 254 261 275
291 287 280 271 258 249 245 246 248 244 241 240 240 238 238 235 216 210 211 215 217 223 226 223 219 216 205 201 206 213 227 238 225 219 230 238 238 239 232 229 236 245 265
294 287 281 270 263 252 247 247 249 246 241 240 243 241 239 238 223 213 212 211 213 219 222 223 219 215 207 206 213 214 221 228 223 221 221 226 228 227 228 235 237 245 262
302 291 284 275 267 256 250 245 243 243 240 236 241 245 244 239 226 215 214 214 212 213 218 221 217 206 208 210 220 223 221 224 224 225 232 236 238 234 234 240 241 242 249
303 292 287 280 275 260 247 243 240 235 232 233 236 244 247 241 233 220 217 221 219 215 219 219 213 203 208 211 217 211 208 215 218 218 229 234 232 233 236 243 250 255 256
299 293 289 285 277 263 245 236 235 233 229 230 230 235 244 245 232 221 217 215 215 220 218 209 205 199 200 205 201 204 208 214 213 215 224 232 235 234 232 239 250 254 269
293 295 290 285 279 270 252 237 232 230 230 230 230 233 238 241 234 224 217 213 207 207 197 181 180 181 187 187 194 201 212 218 218 220 221 223 222 223 234 242 250 259 269
295 293 290 281 274 267 260 249 242 240 235 233 233 233 231 236 237 232 226 218 212 203 190 187 190 191 195 197 202 208 212 211 215 215 209 213 217 221 236 245 249 254 254
291 290 287 282 277 269 266 275 267 253 251 249 251 249 250 248 238 223 222 213 196 180 181 195 199 199 200 201 203 207 212 214 211 210 211 213 216 218 226 237 245 247 257
280 283 283 278 274 271 266 259 269 273 247 239 235 240 241 236 225 215 211 200 189 180 190 197 200 200 199 198 202 208 214 211 204 205 210 210 211 216 224 234 240 250 259
282 280 278 274 270 268 265 256 246 243 249 256 246 238 231 224 218 206 193 183 192 194 201 199 197 193 192 197 203 204 198 195 198 202 207 207 208 214 223 230 236 246 256
284 281 279 275 272 269 266 256 243 240 240 246 246 227 210 205 198 191 183 193 197 202 200 193 189 188 192 192 192 189 188 193 196 197 204 207 210 214 222 227 233 240 255
285 289 290 276 271 271 267 254 240 235 233 232 225 210 182 176 185 188 194 196 194 194 185 182 182 182 181 178 179 180 184 190 195 203 206 211 215 215 220 226 231 237 249
288 286 292 285 272 266 264 254 243 230 221 224 249 225 195 187 188 183 187 192 187 186 180 174 173 176 177 178 182 188 192 201 206 209 212 214 213 217 223 226 230 238 247
282 281 280 279 287 283 278 272 258 218 195 195 325 86 126 137 152 156 162 168 163 159 157 164 175 184 184 188 190 193 200 206 209 209 211 213 215 218 220 225 231 239 247
286 291 292 287 292 297 299 290 275 220 184 175 166 133 133 115 128 139 146 141 124 114 133 151 164 172 171 181 192 197 203 210 210 205 209 214 216 218 222 228 233 239 245
295 287 288 298 305 301 303 309 324 339 1 220 206 174 162 128 119 115 120 113 103 102 119 147 173 179 177 187 195 203 206 204 200 203 209 213 217 221 226 235 239 240 244
315 304 304 310 319 323 329 335 338 335 337 329 309 248 118 105 95 86 85 88 82 94 89 129 176 185 189 195 201 206 206 207 208 210 211 211 216 224 230 233 237 245 248
338 333 329 334 336 331 328 324 329 334 327 331 336 360 62 78 68 66 72 87 85 74 91 176 186 197 200 207 211 210 210 214 214 216 216 212 213 223 225 231 238 244 251
Height
1475 1476 1476 1477 1478 1479 1480 1481 1482 1483 1483 1484 1484 1485 1486 1487 1488 1489 1489 1490 1492 1493 1493 1494 1495 1496 1497 1498 1499 1500 1501 1502 1502 1502 1503 1504 1504 1504 1505 1505 1505 1505 1505
1472 1472 1473 1474 1475 1475 1476 1477 1478 1479 1479 1480 1480 1481 1482 1483 1484 1485 1485 1486 1487 1488 1489 1490 1491 1492 1493 1494 1495 1496 1497 1498 1498 1498 1499 1500 1500 1501 1501 1501 1501 1501 1501
1469 1469 1470 1470 1471 1472 1472 1473 1474 1475 1475 1476 1476 1477 1478 1479 1479 1480 1481 1482 1483 1484 1485 1486 1487 1488 1489 1490 1491 1492 1493 1494 1495 1495 1495 1496 1497 1497 1497 1497 1497 1497 1496
1466 1466 1466 1467 1467 1468 1469 1469 1470 1471 1471 1472 1472 1473 1474 1475 1475 1476 1477 1478 1479 1480 1481 1482 1483 1484 1485 1486 1487 1488 1489 1490 1491 1491 1492 1492 1493 1493 1494 1493 1493 1493 1492
1462 1463 1463 1463 1464 1464 1465 1465 1466 1467 1467 1468 1468 1469 1469 1470 1471 1472 1473 1474 1475 1476 1477 1478 1479 1480 1481 1482 1483 1484 1485 1485 1486 1487 1488 1488 1489 1489 1490 1489 1489 1489 1488
1459 1459 1459 1459 1460 1460 1461 1462 1462 1463 1463 1464 1464 1465 1465 1466 1467 1468 1469 1470 1471 1472 1473 1474 1475 1476 1477 1478 1479 1480 1481 1482 1482 1483 1483 1484 1484 1485 1486 1485 1485 1484 1484
1456 1456 1456 1456 1456 1456 1457 1458 1458 1458 1459 1459 1460 1460 1461 1462 1463 1464 1465 1466 1467 1468 1469 1470 1471 1472 1473 1474 1474 1475 1476 1477 1478 1479 1479 1480 1480 1481 1482 1481 1481 1480 1479
1452 1452 1452 1452 1452 1453 1453 1453 1454 1454 1455 1455 1456 1456 1457 1457 1459 1460 1461 1462 1463 1464 1465 1466 1467 1468 1469 1470 1470 1471 1471 1472 1473 1474 1475 1475 1476 1477 1477 1477 1477 1476 1476
1449 1449 1449 1449 1449 1449 1449 1449 1449 1450 1450 1451 1452 1452 1452 1453 1454 1455 1457 1458 1458 1459 1461 1462 1463 1463 1464 1466 1466 1466 1467 1467 1469 1470 1470 1471 1472 1472 1473 1473 1472 1472 1471
1446 1445 1445 1445 1445 1444 1445 1445 1445 1446 1446 1447 1447 1448 1448 1449 1450 1451 1453 1453 1454 1455 1456 1457 1458 1459 1460 1461 1462 1462 1462 1463 1464 1465 1466 1466 1467 1467 1468 1468 1468 1468 1467
1442 1442 1441 1441 1441 1440 1440 1441 1441 1441 1442 1442 1442 1443 1443 1444 1445 1447 1448 1449 1450 1450 1451 1452 1453 1455 1456 1457 1458 1458 1458 1459 1460 1461 1461 1462 1462 1463 1463 1463 1463 1464 1463
1439 1438 1437 1437 1436 1436 1436 1436 1437 1437 1437 1437 1438 1438 1439 1440 1441 1442 1443 1444 1445 1446 1447 1448 1449 1450 1451 1452 1453 1454 1454 1455 1455 1456 1457 1457 1458 1458 1458 1459 1459 1458 1458
1435 1434 1433 1433 1432 1432 1432 1432 1432 1433 1433 1433 1433 1433 1434 1435 1436 1437 1438 1439 1441 1442 1443 1444 1445 1446 1447 1447 1448 1449 1450 1451 1451 1452 1452 1453 1454 1454 1454 1454 1454 1454 1454
1430 1430 1429 1428 1428 1428 1428 1428 1428 1428 1428 1428 1429 1429 1430 1430 1431 1432 1434 1435 1436 1437 1438 1439 1440 1441 1442 1443 1444 1445 1445 1446 1447 1447 1448 1449 1450 1450 1450 1450 1450 1450 1449
1427 1426 1425 1425 1424 1424 1423 1424 1424 1424 1424 1425 1425 1425 1426 1426 1427 1428 1429 1430 1431 1432 1433 1434 1435 1436 1437 1438 1439 1440 1441 1442 1443 1443 1444 1445 1446 1446 1446 1446 1446 1446 1445
1423 1422 1421 1420 1420 1420 1419 1419 1419 1420 1420 1420 1421 1422 1422 1423 1423 1424 1425 1426 1426 1428 1429 1429 1430 1431 1432 1433 1434 1435 1436 1437 1438 1439 1440 1441 1442 1442 1442 1443 1443 1442 1442
1420 1418 1417 1417 1416 1415 1415 1414 1414 1415 1415 1416 1416 1417 1418 1418 1419 1419 1420 1421 1422 1423 1424 1424 1425 1427 1428 1429 1431 1432 1433 1434 1434 1435 1436 1437 1438 1438 1438 1439 1439 1439 1438
1416 1415 1414 1413 1412 1412 1411 1411 1411 1411 1411 1411 1412 1413 1413 1414 1415 1415 1416 1417 1417 1418 1419 1420 1421 1422 1424 1426 1427 1428 1429 1430 1431 1432 1433 1433 1434 1434 1435 1435 1435 1435 1434
1413 1412 1411 1410 1409 1409 1408 1408 1408 1408 1408 1408 1408 1409 1410 1410 1411 1412 1412 1413 1413 1414 1415 1416 1418 1419 1421 1422 1423 1425 1426 1427 1428 1428 1429 1430 1431 1431 1431 1432 1432 1431 1431
1409 1409 1408 1407 1406 1406 1405 1405 1405 1405 1405 1405 1405 1406 1406 1407 1408 1408 1409 1409 1410 1411 1412 1413 1414 1416 1418 1419 1420 1422 1423 1424 1424 1425 1426 1426 1427 1427 1427 1428 1428 1427 1427
1407 1406 1405 1404 1404 1403 1403 1402 1403 1403 1403 1403 1403 1404 1404 1405 1405 1406 1406 1407 1407 1408 1409 1411 1412 1414 1415 1416 1418 1419 1420 1421 1421 1422 1422 1423 1423 1423 1424 1424 1424 1424 1423
1405 1404 1403 1402 1402 1401 1401 1401 1401 1401 1401 1401 1401 1401 1402 1403 1404 1404 1405 1405 1406 1406 1407 1409 1410 1411 1412 1414 1415 1416 1417 1417 1418 1419 1419 1420 1420 1420 1420 1420 1420 1420 1420
1403 1402 1402 1401 1400 1400 1400 1399 1399 1399 1399 1400 1400 1400 1400 1401 1402 1402 1403 1404 1404 1405 1406 1407 1408 1409 1410 1411 1412 1413 1414 1414 1415 1416 1416 1416 1416 1417 1417 1417 1417 1417 1416
1401 1401 1400 1400 1399 1399 1398 1398 1398 1398 1398 1399 1399 1399 1399 1400 1400 1401 1402 1402 1403 1403 1404 1405 1406 1406 1407 1408 1409 1410 1411 1412 1412 1413 1413 1413 1414 1414 1414 1414 1414 1413 1413
1400 1400 1399 1399 1398 1398 1397 1397 1397 1397 1397 1398 1398 1398 1398 1399 1399 1400 1400 1401 1402 1402 1402 1403 1404 1404 1405 1406 1407 1407 1408 1409 1409 1410 1410 1411 1411 1411 1411 1411 1410 1410 1410
1399 1399 1398 1398 1398 1397 1397 1396 1396 1396 1396 1396 1397 1397 1397 1397 1398 1398 1399 1399 1400 1400 1401 1401 1402 1402 1403 1404 1404 1405 1405 1406 1407 1407 1407 1408 1408 1408 1408 1408 1407 1407 1406